• In Lithuania
  • List of Countries
  • For 7 days
  • Water Temperature
  • Satellite Maps
  • Weather Map
  • Weather Widgets
  • user-avatar
    Login

    Hourly Weather Barra

    Today, 21 July, Friday

    Time Temperature Precipitation Wind Pressure Humidity
    00:00 +17°C° 0 mm 2 mps 751 mmHg 88%
    01:00 +17°C° 0 mm 2 mps 751 mmHg 90%
    02:00 +16°C° 0 mm 2 mps 751 mmHg 91%
    03:00 +16°C° 0 mm 2 mps 751 mmHg 93%
    04:00 +16°C° 0 mm 2 mps 751 mmHg 95%
    05:00 +16°C° 0 mm 2 mps 751 mmHg 95%
    06:00 +16°C° 0 mm 2 mps 751 mmHg 96%
    07:00 +16°C° 0 mm 2 mps 751 mmHg 96%
    08:00 +19°C° 0 mm 2 mps 752 mmHg 85%
    09:00 +21°C° 0 mm 3 mps 752 mmHg 73%
    10:00 +25°C° 0 mm 2 mps 752 mmHg 59%
    11:00 +26°C° 0 mm 2 mps 751 mmHg 57%
    12:00 +26°C° 0 mm 3 mps 751 mmHg 55%
    13:00 +27°C° 0 mm 3 mps 751 mmHg 52%
    14:00 +27°C° 0 mm 3 mps 750 mmHg 54%
    15:00 +26°C° 0 mm 3 mps 750 mmHg 57%
    16:00 +26°C° 0 mm 3 mps 750 mmHg 59%
    17:00 +24°C° 0 mm 3 mps 750 mmHg 67%
    18:00 +21°C° 0 mm 2 mps 751 mmHg 75%
    19:00 +19°C° 0 mm 2 mps 751 mmHg 83%
    20:00 +19°C° 0 mm 2 mps 751 mmHg 85%
    21:00 +18°C° 0 mm 2 mps 752 mmHg 87%
    22:00 +18°C° 0 mm 2 mps 752 mmHg 89%
    23:00 +18°C° 0 mm 2 mps 752 mmHg 90%

    Tomorrow, 22 July, Saturday

    Time Temperature Precipitation Wind Pressure Humidity
    00:00 +18°C° 0 mm 2 mps 752 mmHg 91%
    01:00 +17°C° 0 mm 2 mps 752 mmHg 92%
    02:00 +17°C° 0 mm 2 mps 752 mmHg 92%
    03:00 +17°C° 0 mm 3 mps 752 mmHg 93%
    04:00 +17°C° 0 mm 3 mps 752 mmHg 93%
    05:00 +18°C° 0 mm 3 mps 752 mmHg 93%
    06:00 +18°C° 0 mm 3 mps 752 mmHg 92%
    07:00 +18°C° 0 mm 3 mps 752 mmHg 91%
    08:00 +20°C° 0 mm 3 mps 753 mmHg 86%
    09:00 +21°C° 0 mm 4 mps 753 mmHg 80%
    10:00 +22°C° 0 mm 4 mps 753 mmHg 75%
    11:00 +23°C° 0 mm 4 mps 753 mmHg 70%
    12:00 +25°C° 0 mm 4 mps 752 mmHg 66%
    13:00 +26°C° 0 mm 4 mps 752 mmHg 62%
    14:00 +25°C° 0 mm 4 mps 751 mmHg 63%
    15:00 +25°C° 0 mm 4 mps 751 mmHg 64%
    16:00 +25°C° 0 mm 4 mps 750 mmHg 65%
    17:00 +22°C° 0 mm 3 mps 751 mmHg 72%
    18:00 +21°C° 0 mm 3 mps 751 mmHg 78%
    19:00 +19°C° 0 mm 3 mps 752 mmHg 85%
    20:00 +19°C° 0 mm 3 mps 752 mmHg 87%
    21:00 +19°C° 0 mm 3 mps 753 mmHg 88%
    22:00 +18°C° 0 mm 3 mps 753 mmHg 90%
    23:00 +18°C° 0 mm 3 mps 753 mmHg 91%

    Day after tomorrow, 23 July, Sunday

    Time Temperature Precipitation Wind Pressure Humidity
    00:00 +18°C° 0 mm 3 mps 753 mmHg 91%
    01:00 +18°C° 0 mm 3 mps 753 mmHg 92%
    02:00 +18°C° 0 mm 3 mps 752 mmHg 92%
    03:00 +18°C° 0 mm 3 mps 752 mmHg 91%
    04:00 +18°C° 0 mm 3 mps 752 mmHg 91%
    05:00 +18°C° 0 mm 3 mps 752 mmHg 92%
    06:00 +18°C° 0 mm 3 mps 752 mmHg 93%
    07:00 +18°C° 0 mm 3 mps 753 mmHg 94%
    08:00 +20°C° 0 mm 3 mps 753 mmHg 85%
    09:00 +22°C° 0 mm 3 mps 753 mmHg 76%
    10:00 +25°C° 0 mm 3 mps 754 mmHg 68%
    11:00 +26°C° 0 mm 3 mps 753 mmHg 65%
    12:00 +26°C° 0 mm 3 mps 752 mmHg 61%
    13:00 +27°C° 0 mm 4 mps 751 mmHg 58%
    14:00 +27°C° 0 mm 4 mps 751 mmHg 60%
    15:00 +26°C° 0 mm 4 mps 750 mmHg 63%
    16:00 +26°C° 0 mm 4 mps 750 mmHg 65%
    17:00 +23°C° 0 mm 4 mps 751 mmHg 74%
    18:00 +22°C° 0 mm 3 mps 751 mmHg 82%
    19:00 +20°C° 0 mm 3 mps 752 mmHg 90%
    20:00 +20°C° 0.1 mm 3 mps 752 mmHg 91%
    21:00 +20°C° 0.1 mm 3 mps 753 mmHg 92%
    22:00 +20°C° 0.1 mm 3 mps 753 mmHg 92%
    23:00 +20°C° 0.1 mm 3 mps 753 mmHg 93%

    24 July, Monday

    Time Temperature Precipitation Wind Pressure Humidity
    00:00 +19°C° 0.1 mm 3 mps 753 mmHg 93%
    01:00 +19°C° 0.1 mm 3 mps 752 mmHg 94%
    02:00 +19°C° 0.1 mm 3 mps 752 mmHg 94%
    03:00 +19°C° 0.1 mm 3 mps 752 mmHg 94%
    04:00 +19°C° 0.1 mm 3 mps 751 mmHg 94%
    05:00 +19°C° 0 mm 3 mps 752 mmHg 94%
    06:00 +19°C° 0 mm 3 mps 752 mmHg 94%
    07:00 +19°C° 0 mm 3 mps 753 mmHg 95%
    08:00 +20°C° 0.1 mm 4 mps 753 mmHg 89%
    09:00 +21°C° 0.1 mm 4 mps 754 mmHg 84%
    10:00 +23°C° 0.1 mm 4 mps 754 mmHg 79%
    11:00 +23°C° 0.1 mm 4 mps 753 mmHg 78%
    12:00 +23°C° 0.1 mm 4 mps 753 mmHg 78%
    13:00 +23°C° 0.1 mm 4 mps 752 mmHg 77%
    14:00 +23°C° 0 mm 4 mps 752 mmHg 75%
    15:00 +23°C° 0 mm 4 mps 752 mmHg 73%
    16:00 +23°C° 0 mm 4 mps 751 mmHg 71%
    17:00 +22°C° 0 mm 4 mps 752 mmHg 77%
    18:00 +20°C° 0 mm 4 mps 752 mmHg 83%
    19:00 +19°C° 0 mm 3 mps 752 mmHg 89%
    20:00 +19°C° 0 mm 4 mps 753 mmHg 90%
    21:00 +19°C° 0 mm 4 mps 753 mmHg 91%
    22:00 +19°C° 0 mm 4 mps 754 mmHg 92%
    23:00 +19°C° 0.1 mm 4 mps 753 mmHg 92%

    25 July, Tuesday

    Time Temperature Precipitation Wind Pressure Humidity
    00:00 +19°C° 0.1 mm 4 mps 753 mmHg 92%
    01:00 +19°C° 0.1 mm 4 mps 753 mmHg 92%
    02:00 +19°C° 0.1 mm 4 mps 753 mmHg 93%
    03:00 +19°C° 0.1 mm 4 mps 753 mmHg 93%
    04:00 +19°C° 0.1 mm 4 mps 752 mmHg 94%
    05:00 +19°C° 0.1 mm 4 mps 753 mmHg 94%
    06:00 +19°C° 0.1 mm 4 mps 753 mmHg 94%
    07:00 +19°C° 0.1 mm 4 mps 754 mmHg 94%
    08:00 +20°C° 0.1 mm 5 mps 754 mmHg 87%
    09:00 +21°C° 0.1 mm 5 mps 754 mmHg 80%
    10:00 +23°C° 0.1 mm 5 mps 754 mmHg 73%
    11:00 +23°C° 0 mm 5 mps 754 mmHg 68%
    12:00 +25°C° 0 mm 5 mps 753 mmHg 62%
    13:00 +26°C° 0 mm 5 mps 752 mmHg 56%
    14:00 +25°C° 0 mm 5 mps 752 mmHg 58%
    15:00 +25°C° 0 mm 5 mps 752 mmHg 59%
    16:00 +23°C° 0 mm 5 mps 751 mmHg 61%
    17:00 +22°C° 0 mm 5 mps 752 mmHg 68%
    18:00 +20°C° 0 mm 5 mps 752 mmHg 75%
    19:00 +19°C° 0 mm 4 mps 753 mmHg 83%
    20:00 +19°C° 0 mm 4 mps 753 mmHg 84%
    21:00 +19°C° 0 mm 4 mps 753 mmHg 86%
    22:00 +18°C° 0 mm 4 mps 754 mmHg 87%
    23:00 +19°C° 0.1 mm 4 mps 754 mmHg 88%

    26 July, Wednesday

    Time Temperature Precipitation Wind Pressure Humidity
    00:00 +19°C° 0.1 mm 4 mps 753 mmHg 88%
    01:00 +19°C° 0.1 mm 4 mps 753 mmHg 88%
    02:00 +18°C° 0.1 mm 4 mps 753 mmHg 90%
    03:00 +18°C° 0.1 mm 4 mps 753 mmHg 91%
    04:00 +18°C° 0.1 mm 4 mps 752 mmHg 92%
    05:00 +18°C° 0 mm 4 mps 753 mmHg 93%
    06:00 +18°C° 0 mm 4 mps 753 mmHg 93%
    07:00 +18°C° 0 mm 4 mps 753 mmHg 94%
    08:00 +19°C° 0.1 mm 4 mps 754 mmHg 87%
    09:00 +21°C° 0.1 mm 5 mps 754 mmHg 79%
    10:00 +23°C° 0.1 mm 5 mps 754 mmHg 72%
    11:00 +23°C° 0.1 mm 5 mps 753 mmHg 68%
    12:00 +25°C° 0.1 mm 5 mps 753 mmHg 64%
    13:00 +26°C° 0.1 mm 5 mps 752 mmHg 60%
    14:00 +25°C° 0 mm 5 mps 752 mmHg 60%
    15:00 +25°C° 0 mm 5 mps 752 mmHg 61%
    16:00 +25°C° 0 mm 5 mps 751 mmHg 62%
    17:00 +22°C° 0 mm 4 mps 752 mmHg 70%
    18:00 +21°C° 0 mm 4 mps 752 mmHg 78%
    19:00 +19°C° 0 mm 4 mps 753 mmHg 86%
    20:00 +19°C° 0.1 mm 4 mps 753 mmHg 89%
    21:00 +18°C° 0.1 mm 4 mps 753 mmHg 91%
    22:00 +18°C° 0.1 mm 4 mps 754 mmHg 94%
    23:00 +18°C° 0.1 mm 4 mps 753 mmHg 94%
    Show more